Hourly Data Report for November 23, 2017

All times are specified in Local Standard Time (LST). Add 1 hour to adjust for Daylight Saving Time where and when it is observed.

KAMLOOPS A
BRITISH COLUMBIA

50°42'09.000" N
120°26'55.000" W
345.30 m
1163781
71887
YKA

Download Data

Hourly Data (November 2017)
Hourly Data Report for November 23, 2017
Temp Definition
°C
Dew Point Temp Definition
°C
Rel Hum Definition
%
Wind Dir Definition
10's deg

Wind Spd Definition
km/h
Visibility Definition
km
Stn Press Definition
kPa
Hmdx Definition


Wind Chill Definition


Weather Definition


TIME
00:00 Legend Double Dagger 11.5 7.4 76 3 34 48.3 96.21     LegendNANA
01:00 Legend Double Dagger 11.9 7.3 73 6 23 48.3 96.16     Mostly Cloudy
02:00 Legend Double Dagger 12.1 7.0 71 4 28 48.3 96.13     LegendNANA
03:00 Legend Double Dagger 13.2 6.3 63 16 11 48.3 96.18     LegendNANA
04:00 Legend Double Dagger 12.0 6.7 69 11 12 48.3 96.16     Mostly Cloudy
05:00 Legend Double Dagger 11.7 5.9 68 9 6 48.3 96.15     LegendNANA
06:00 Legend Double Dagger 12.3 5.0 61 4 18 48.3 96.14     LegendNANA
07:00 Legend Double Dagger 12.8 3.8 54 33 7 48.3 96.15     Cloudy
08:00 Legend Double Dagger 11.0 5.1 67 26 16 64.4 96.30     LegendNANA
09:00 Legend Double Dagger 10.4 5.8 73 7 6 64.4 96.24     LegendNANA
10:00 Legend Double Dagger 12.6 5.0 59 3 11 64.4 96.19     Mostly Cloudy
11:00 Legend Double Dagger 13.0 2.0 47 20 18 64.4 96.18     LegendNANA
12:00 Legend Double Dagger 13.5 -1.4 35 15 7 64.4 96.07     LegendNANA
13:00 Legend Double Dagger 12.3 -1.3 39 28 21 64.4 96.06     Mostly Cloudy
14:00 Legend Double Dagger 11.9 -1.3 40 21 23 64.4 96.06     LegendNANA
15:00 Legend Double Dagger 11.5 -1.9 39 23 31 64.4 96.08     LegendNANA
16:00 Legend Double Dagger 10.4 -1.8 42 23 26 64.4 96.13     Clear
17:00 Legend Double Dagger 9.2 -1.6 47 24 14 64.4 96.21     LegendNANA
18:00 Legend Double Dagger 8.7 -1.2 50 17 12 64.4 96.31     LegendNANA
19:00 Legend Double Dagger 6.1 -1.2 60 22 6 64.4 96.38     Clear
20:00 Legend Double Dagger 6.2 -1.2 59 6 3 64.4 96.44     LegendNANA
21:00 Legend Double Dagger 5.1 -1.8 61 36 2 64.4 96.53     LegendNANA
22:00 Legend Double Dagger 4.0 -1.3 68 21 7 64.4 96.57     Clear
23:00 Legend Double Dagger 5.1 -0.9 65 36 1 64.4 96.59     LegendNANA

Notes on Data Quality.

Legend

  • E = Estimated
  • M = Missing
  • NA = Not Available
  • ‡ = Partner data that is not subject to review by the National Climate Archives
Date modified: